Simultaneous Nadir Overpasses (SNOs) Predictions

Prediction of SNOs between METOP-B and NOAA-19 Satellite Orbit:

Table of predicted SNOs for the next 14.0 days since TLE Epoch: 3/7/2014
Index Date (METOP-B) Time (METOP-B) Lat,Lon (METOP-B) SZA (METOP-B ) Date (NOAA-19) Time (NOAA-19) Lat,Lon (NOAA-19) SZA (NOAA-19 ) Distance(km) Time Diff (sec)
1 03/13/2014 19:20:37 74.42,-114.08 77.16 03/13/2014 19:19:31 74.42,-117.17 77.29 92.27 66
2 03/13/2014 20:11:32 -73.77, 51.62 103.46 03/13/2014 20:10:23 -73.79, 51.69 103.43 3.14 69
3 03/13/2014 21:02:12 73.76,-141.07 76.53 03/13/2014 21:01:21 73.75,-140.96 76.52 3.73 51
4 03/13/2014 21:52:54 -73.75, 26.23 103.50 03/13/2014 21:52:26 -73.75, 26.28 103.50 1.51 28
5 03/13/2014 22:43:34 73.74,-166.45 76.48 03/13/2014 22:43:25 73.75,-166.49 76.50 1.68 9
6
